EO 1 Delta rocket - Orbit

View from above orbital plane
View from above orbital plane
View from above satellite
View from above satellite

Ground track
Ground track

The orbit data is extracted from the following two-line orbital elements,

1 26622U 00075D   13168.81941093  .00000625  00000-0  57327-3 0  1277
2 26622 095.4240 213.3195 0718184 232.2893 212.0584 13.04169066598297
Epoch (UTC): 17 June 2013 19:39:57
Eccentricity: 0.0718184
inclination: 95.4240°
perigee height: 698 km
apogee height: 1793 km
right ascension of ascending node: 213.3195°
argument of perigee: 232.2893°
revolutions per day: 13.04169066
mean anomaly at epoch: 212.0584°
orbit number at epoch: 59829

The dashed part of the orbit path shows where the satellite is in the earth's shadow,  

Developed and maintained by Chris Peat, Heavens-Above GmbH. Please read the updated FAQ before sending e-mail. Imprint. DLR